Date,TemperatureHighF,TemperatureAvgF,TemperatureLowF,DewpointHighF,DewpointAvgF,DewpointLowF,HumidityHigh,HumidityAvg,HumidityLow,PressureMaxIn,PressureMinIn,WindSpeedMaxMPH,WindSpeedAvgMPH,GustSpeedMaxMPH,PrecipitationSumIn
2013-1-1,21.4,14.3,5.5,14.4,9.6,2.8,90,81,61,30.41,30.21,14,6,16,0.00
2013-1-2,34.2,25.1,13.6,29.7,21.1,9.7,92,84,80,30.30,30.13,16,7,17,0.00
2013-1-3,30.7,23.5,15.4,27.3,19.6,12.7,90,85,79,30.48,30.30,28,8,29,0.00
2013-1-4,35.8,23.3,16.3,24.3,17.6,13.1,91,79,56,30.39,30.21,18,7,19,0.00
2013-1-5,32.9,26.0,20.1,29.3,21.4,16.3,91,83,69,30.28,30.06,30,10,34,0.00
2013-1-6,37.9,25.5,13.6,27.3,20.1,10.9,90,81,62,30.40,30.19,27,8,30,0.00
2013-1-7,40.1,33.7,25.5,30.7,27.0,22.1,91,77,65,30.19,29.98,32,9,32,0.00
2013-1-8,41.7,33.5,25.2,33.4,28.6,22.6,92,82,70,30.19,29.90,28,7,28,0.00
2013-1-9,49.5,37.2,26.8,37.6,30.5,22.1,89,77,58,30.48,30.18,12,4,14,0.00
2013-1-10,38.7,36.2,32.7,37.2,32.6,26.6,98,87,68,30.37,29.73,27,10,30,0.11
2013-1-11,52.9,42.1,26.1,47.3,39.3,19.0,100,90,73,29.79,29.41,38,15,43,0.01
2013-1-12,26.1,19.1,11.7,19.8,11.1,5.2,78,71,61,30.20,29.79,31,16,43,0.00
2013-1-13,20.5,13.1,7.3,10.2,6.0,3.0,89,73,58,30.43,30.19,23,9,24,0.00
2013-1-14,30.4,17.5,7.0,14.4,9.8,3.2,86,72,49,30.56,30.42,14,2,16,0.00
2013-1-15,34.7,23.6,14.9,20.5,15.5,10.2,83,72,51,30.43,30.11,17,6,20,0.00
2013-1-16,49.8,35.9,23.0,35.2,27.8,17.6,87,73,56,30.28,29.98,24,10,26,0.00
2013-1-17,40.5,31.0,26.2,37.9,29.2,24.8,98,93,80,30.51,30.28,15,4,15,0.00
2013-1-18,52.5,40.2,30.2,35.4,31.1,27.3,92,71,49,30.34,29.92,31,10,35,0.00
2013-1-19,51.6,40.1,24.3,35.1,29.3,16.9,80,66,48,30.36,29.89,39,13,39,0.00
2013-1-20,24.3,17.7,11.7,18.3,10.6,7.3,87,74,60,30.48,30.34,23,7,23,0.00
2013-1-21,15.3,11.7,8.2,11.5,0.8,-5.1,89,62,48,30.54,30.44,24,10,27,0.00
2013-1-22,24.6,16.2,11.5,12.4,8.7,0.9,92,73,55,30.48,30.31,17,5,17,0.00
2013-1-23,29.5,19.6,11.8,20.3,12.9,5.5,85,75,64,30.56,30.23,28,12,29,0.00
2013-1-24,19.9,11.6,2.1,8.2,1.3,-4.2,77,63,49,30.61,30.26,24,11,27,0.00
2013-1-25,48.9,29.8,15.8,28.2,18.9,7.7,85,65,42,30.30,30.20,19,6,20,0.00
2013-1-26,54.1,32.9,18.0,29.3,23.3,15.3,90,71,34,30.29,30.04,30,13,31,0.00
2013-1-27,42.4,38.6,35.1,41.9,36.7,26.8,98,93,65,30.04,29.71,27,11,28,0.20
2013-1-28,45.7,38.7,32.7,45.5,38.4,32.2,99,99,98,29.89,29.58,18,6,18,0.02
2013-1-29,39.6,33.3,30.6,39.4,32.2,29.7,99,95,91,29.74,29.58,30,16,31,0.01
2013-1-30,30.6,21.7,15.3,29.8,17.8,11.1,98,85,71,30.01,29.66,45,20,48,0.00
2013-1-31,16.5,8.2,-1.1,12.4,1.6,-6.2,85,74,62,30.52,29.99,47,14,50,0.00
2013-2-1,27.1,14.9,-0.2,21.0,8.5,-5.8,81,76,70,30.52,30.16,35,10,35,0.00
2013-2-2,43.2,31.7,24.6,35.6,26.8,19.4,90,82,71,30.27,30.09,32,8,34,0.00
2013-2-3,41.9,33.9,21.9,31.5,26.5,17.4,86,74,57,30.27,29.83,31,11,34,0.00
2013-2-4,37.0,27.6,22.8,30.4,24.1,20.8,100,87,76,30.06,29.81,31,10,31,0.00
2013-2-5,49.5,37.5,25.9,36.0,29.4,24.1,94,74,51,30.11,29.89,27,8,28,0.00
2013-2-6,57.4,42.1,31.5,42.8,34.4,27.9,92,75,50,30.11,29.86,22,8,26,0.00
2013-2-7,41.2,33.3,28.8,37.4,30.3,25.2,92,88,85,30.29,29.90,32,17,34,0.00
2013-2-8,33.6,28.7,25.2,28.9,25.8,23.2,100,89,82,30.40,30.18,24,10,25,0.00
2013-2-9,50.4,37.7,28.9,40.8,33.2,27.0,95,84,68,30.21,29.69,34,20,35,0.00
2013-2-10,45.7,37.0,31.5,42.1,33.3,24.4,97,86,74,29.87,29.29,51,22,52,0.02
2013-2-11,37.8,30.9,25.0,27.5,24.2,21.9,90,76,62,30.21,29.87,42,14,43,0.00
2013-2-12,47.5,33.3,20.8,27.3,22.9,18.9,94,69,40,30.20,29.96,24,5,24,0.00
2013-2-13,53.4,38.2,26.1,32.9,27.3,21.7,92,67,39,29.96,29.78,22,5,24,0.00
2013-2-14,43.2,36.7,20.8,32.7,27.9,15.8,95,72,44,30.32,29.84,39,16,44,0.00
2013-2-15,31.6,22.3,13.1,26.2,17.0,9.9,94,81,55,30.43,30.32,23,8,28,0.00
2013-2-16,34.0,24.4,12.9,26.6,20.0,10.8,92,84,73,30.41,30.06,21,9,24,0.00
2013-2-17,52.2,37.0,23.2,39.4,29.7,20.1,89,76,60,30.06,29.58,33,14,35,0.00
2013-2-18,42.6,32.0,21.2,34.9,26.2,16.5,95,79,64,30.12,29.56,46,19,49,0.00
2013-2-19,25.9,17.2,10.0,18.9,7.3,3.0,92,66,40,30.45,30.11,31,16,35,0.00
2013-2-20,24.1,15.4,6.1,12.2,6.2,0.9,81,68,52,30.46,30.28,22,10,23,0.00
2013-2-21,23.0,21.4,20.7,20.1,15.0,9.9,94,77,57,30.31,29.89,29,13,29,0.00
2013-2-22,21.7,17.3,7.9,20.3,14.0,5.2,94,87,76,30.12,29.89,22,10,24,0.00
2013-2-23,36.1,20.8,5.7,28.8,16.7,3.0,92,84,70,30.09,29.92,22,7,24,0.01
2013-2-24,40.5,31.3,22.5,30.0,26.0,19.4,91,81,63,30.11,29.96,14,5,15,0.00
2013-2-25,34.2,29.4,26.1,29.7,26.7,24.1,94,89,79,30.12,29.93,26,13,27,0.00
2013-2-26,30.0,27.2,24.4,28.6,25.9,23.2,96,94,91,29.98,29.83,28,18,30,0.01
2013-2-27,36.9,30.1,24.3,28.8,25.2,20.8,93,82,63,30.16,29.94,44,22,48,0.00
2013-2-28,30.6,27.3,25.0,26.1,23.5,20.5,89,85,79,30.30,30.15,36,20,37,0.00
2013-3-1,28.2,25.0,22.8,22.5,19.5,16.9,89,80,70,30.42,30.27,28,16,30,0.00
2013-3-2,38.7,27.1,14.0,26.1,20.2,11.3,91,76,51,30.42,30.14,20,6,20,0.00
2013-3-3,40.8,33.0,26.1,33.4,27.9,23.0,89,82,73,30.14,29.73,28,14,29,0.00
2013-3-4,41.9,34.4,29.1,32.7,29.5,23.0,95,83,66,30.09,29.68,29,12,29,0.00
2013-3-5,32.5,27.3,22.5,23.0,19.8,16.7,84,73,61,30.45,30.06,42,22,48,0.00
2013-3-6,38.7,28.3,20.1,25.0,20.9,16.5,92,74,54,30.50,30.29,21,8,22,0.00
2013-3-7,52.5,34.9,23.4,32.4,26.3,19.8,88,73,44,30.32,30.14,32,15,34,0.00
2013-3-8,56.1,41.7,28.6,41.5,33.9,25.5,89,75,56,30.22,29.93,31,16,33,0.07
2013-3-9,54.7,46.8,35.6,52.0,44.3,34.3,96,91,84,29.93,29.54,38,16,43,0.09
2013-3-10,35.6,27.6,22.1,34.3,26.1,20.3,96,94,92,30.00,29.69,46,27,49,0.07
2013-3-11,30.6,23.0,18.7,23.0,17.8,14.4,93,81,58,30.08,29.94,33,12,34,0.01
2013-3-12,32.5,28.9,23.9,25.3,22.8,18.7,86,78,70,30.39,30.07,36,16,37,0.00
2013-3-13,37.6,27.1,15.6,28.2,21.1,13.5,93,78,63,30.52,30.30,17,6,18,0.00
2013-3-14,54.1,40.8,30.6,44.2,33.9,24.3,90,77,66,30.30,30.10,20,7,21,0.00
2013-3-15,59.5,47.5,37.9,48.4,40.4,34.3,93,77,57,30.10,29.72,27,8,28,0.00
2013-3-16,39.9,32.1,27.9,38.1,28.5,24.8,95,86,78,30.22,29.85,37,16,38,0.01
2013-3-17,45.7,33.4,24.3,34.0,27.3,21.4,92,79,62,30.19,29.79,27,12,28,0.00
2013-3-18,38.7,34.0,28.4,34.3,24.2,15.8,97,69,43,30.10,29.76,44,17,45,0.06
2013-3-19,50.4,33.9,22.3,32.4,20.8,16.0,84,60,35,30.37,30.09,37,9,37,0.00
2013-3-20,35.2,24.8,16.9,19.8,12.0,6.1,81,60,37,30.45,30.15,30,13,33,0.00
2013-3-21,32.7,26.3,20.8,21.0,16.5,12.7,85,67,48,30.16,29.96,21,8,21,0.00
2013-3-22,34.5,30.8,26.6,22.8,21.2,18.5,80,68,53,30.08,30.01,14,5,15,0.00
2013-3-23,36.5,31.0,27.1,30.2,26.0,21.7,96,82,61,30.16,30.05,23,10,25,0.00
2013-3-24,28.6,25.9,23.7,27.1,21.8,17.6,95,85,69,30.16,30.08,34,22,37,0.00
2013-3-25,29.5,26.0,23.5,24.3,22.3,19.2,92,86,69,30.41,30.15,35,19,38,0.00
2013-3-26,41.4,28.0,17.4,25.2,19.7,12.9,88,72,48,30.46,30.30,14,5,16,0.00
2013-3-27,51.6,37.2,26.1,34.2,27.9,21.9,92,71,48,30.32,30.22,25,12,29,0.00
2013-3-28,57.7,43.3,28.6,36.3,31.5,25.3,89,66,39,30.29,30.17,14,5,19,0.00
2013-3-29,68.5,52.1,35.2,42.1,34.5,30.0,90,56,25,30.25,30.04,27,11,34,0.00
2013-3-30,64.8,54.9,46.9,54.5,45.6,35.1,96,73,42,30.11,29.89,41,10,44,0.20
2013-3-31,56.5,47.4,32.7,43.5,35.1,24.8,95,66,31,30.15,29.95,36,14,38,0.00
2013-4-1,39.0,30.7,23.2,31.5,20.8,14.7,95,69,39,30.38,30.15,29,12,30,0.02
2013-4-2,53.6,37.6,23.5,28.4,23.7,18.0,83,60,36,30.40,30.28,19,3,19,0.04
2013-4-3,53.8,40.3,29.1,29.1,25.9,22.6,80,58,37,30.39,30.25,24,9,24,0.00
2013-4-4,62.2,45.9,30.6,39.6,33.1,24.8,92,63,40,30.27,30.07,21,6,27,0.00
2013-4-5,70.3,52.2,32.2,41.5,34.9,28.9,89,56,26,30.18,29.71,38,14,38,0.00
2013-4-6,70.2,58.9,48.9,47.7,41.3,36.5,78,54,33,29.79,29.60,37,13,37,0.01
2013-4-7,73.6,57.3,41.7,51.8,41.5,35.8,93,59,30,29.83,29.60,38,8,44,0.01
2013-4-8,66.7,58.0,46.8,61.0,55.2,45.7,98,91,79,29.69,29.62,22,8,22,0.06
2013-4-9,62.2,47.4,33.6,60.3,45.9,32.5,97,95,90,29.99,29.54,39,18,41,0.38
2013-4-10,37.0,34.6,31.6,36.3,33.7,31.1,98,97,93,30.01,29.80,33,16,36,0.56
2013-4-11,35.2,31.9,29.5,33.1,29.4,27.1,98,90,83,29.85,29.72,26,14,28,0.01
2013-4-12,43.3,35.4,31.5,33.8,29.7,27.1,90,80,64,30.07,29.80,31,15,32,0.00
2013-4-13,55.6,41.6,26.6,41.4,33.7,23.9,91,75,57,30.09,29.66,31,11,31,0.00
2013-4-14,66.6,53.6,43.0,51.8,42.1,31.5,86,67,37,29.69,29.32,52,14,53,0.01
2013-4-15,44.6,39.5,33.6,31.6,28.2,22.8,78,64,55,30.12,29.69,22,10,25,0.00
2013-4-16,50.5,42.0,34.2,35.2,30.5,27.1,84,65,43,30.28,30.09,25,12,26,0.00
2013-4-17,45.1,41.1,36.3,41.9,38.3,35.1,97,90,68,30.18,29.65,40,15,40,0.58
2013-4-18,36.3,33.5,30.7,35.2,31.0,27.1,97,91,80,29.98,29.73,43,24,45,0.18
2013-4-19,45.5,35.8,28.0,29.3,24.8,21.0,84,66,41,30.16,29.93,34,16,41,0.00
2013-4-20,48.0,37.1,24.1,31.5,25.4,20.5,88,65,42,30.31,30.15,28,9,29,0.00
2013-4-21,67.5,54.2,42.3,50.0,39.7,30.9,94,60,38,30.17,29.99,44,18,48,0.42
2013-4-22,53.2,44.3,32.7,51.1,42.8,29.8,98,94,88,30.23,29.94,38,13,40,1.36
2013-4-23,36.9,32.3,28.8,29.7,26.4,23.9,89,79,66,30.30,30.18,34,20,38,0.00
2013-4-24,59.2,40.3,25.0,37.4,27.6,21.6,88,65,29,30.28,30.09,34,8,39,0.00
2013-4-25,68.2,50.6,32.5,39.7,33.9,28.2,86,57,29,30.29,30.04,34,9,38,0.00
2013-4-26,67.8,56.4,46.2,52.0,44.6,37.6,94,65,50,30.19,30.03,29,12,31,0.00
2013-4-27,67.5,53.6,41.5,52.0,47.5,40.3,97,82,55,30.20,29.96,18,5,18,0.00
2013-4-28,81.0,62.2,44.2,55.2,49.7,43.2,97,68,36,29.96,29.67,31,11,34,0.00
2013-4-29,83.7,67.9,52.7,58.6,52.7,46.2,90,62,31,29.75,29.49,22,6,23,0.00
2013-4-30,73.2,68.5,61.0,58.6,50.9,45.1,65,54,45,29.84,29.46,36,16,45,0.00
2013-5-1,61.2,42.3,32.5,46.6,37.6,31.8,97,85,51,30.45,29.84,48,26,52,0.20
2013-5-2,47.7,38.5,32.4,37.2,32.2,27.9,98,79,59,30.59,30.42,38,18,42,0.24
2013-5-3,46.9,39.4,30.7,34.3,31.0,27.3,88,72,56,30.43,30.07,35,18,37,0.00
2013-5-4,42.4,39.1,35.4,40.6,36.7,32.5,95,91,75,30.18,30.00,38,22,41,0.02
2013-5-5,53.1,46.0,40.6,48.6,43.5,39.4,100,91,83,30.21,30.13,25,14,25,0.00
2013-5-6,70.5,54.5,46.2,53.2,48.4,45.1,96,82,52,30.18,30.04,16,6,16,0.00
2013-5-7,73.0,61.6,47.1,55.0,51.8,45.7,97,73,48,30.09,29.92,27,5,27,0.00
2013-5-8,71.1,62.4,56.7,58.1,55.6,52.0,92,79,60,29.95,29.86,19,7,21,0.04
2013-5-9,67.5,59.5,55.6,57.2,55.9,54.1,96,88,66,29.99,29.82,29,12,30,0.00
2013-5-10,69.1,57.0,49.1,54.3,48.0,44.1,94,75,44,30.11,29.98,28,12,28,0.00
2013-5-11,61.2,53.7,42.1,46.6,31.0,18.5,83,46,21,30.27,30.04,43,17,46,0.00
2013-5-12,68.4,52.5,35.4,34.9,27.6,21.4,70,42,21,30.30,30.12,15,3,16,0.00
2013-5-13,82.9,65.8,46.9,54.9,45.1,34.7,76,50,26,30.13,29.83,32,12,32,0.00
2013-5-14,97.9,80.9,60.8,59.7,54.5,45.3,84,46,18,29.83,29.60,38,12,43,0.00
2013-5-15,83.7,74.2,61.2,54.9,47.4,39.7,67,40,23,29.85,29.72,28,11,30,0.00
2013-5-16,83.1,71.9,59.0,63.7,57.8,47.1,84,62,44,29.84,29.71,27,6,27,0.00
2013-5-17,84.4,72.9,61.2,63.0,59.9,57.4,89,66,43,29.86,29.77,23,8,25,0.00
2013-5-18,84.6,73.8,60.1,69.4,63.6,57.0,92,72,54,29.85,29.63,33,14,36,0.00
2013-5-19,77.7,66.3,59.9,68.5,61.4,56.7,95,85,59,29.77,29.45,35,11,42,0.38
2013-5-20,75.7,65.7,56.5,58.3,55.0,49.5,95,70,46,29.65,29.50,35,12,39,0.03
2013-5-21,63.0,58.6,53.2,55.9,50.0,46.0,89,74,59,29.74,29.59,29,11,30,0.00
2013-5-22,60.4,55.0,50.4,51.3,48.9,47.3,92,80,66,30.00,29.74,30,14,32,0.00
2013-5-23,72.9,60.1,51.3,52.0,47.8,43.5,90,67,35,30.23,29.99,24,12,29,0.00
2013-5-24,75.0,63.2,48.7,53.1,49.1,44.1,85,62,42,30.28,29.98,38,16,39,0.00
2013-5-25,81.0,69.2,59.2,69.1,61.5,48.7,96,78,58,30.10,29.90,35,13,39,0.27
2013-5-26,84.9,73.7,65.8,70.9,67.0,62.2,93,80,62,29.95,29.77,32,13,32,0.00
2013-5-27,77.9,67.7,59.5,68.4,62.9,58.3,97,86,63,29.88,29.52,35,13,37,1.76
2013-5-28,80.8,69.3,62.1,67.5,63.2,60.1,100,82,55,29.69,29.59,28,6,28,0.18
2013-5-29,75.6,68.1,60.3,71.2,65.0,59.0,98,90,76,29.70,29.47,43,16,57,0.94
2013-5-30,74.5,64.6,59.4,65.1,59.9,55.0,96,85,70,29.61,29.47,39,12,48,0.72
2013-5-31,77.5,67.0,55.2,55.9,52.2,45.0,91,62,34,29.72,29.60,16,1,19,0.10
2013-6-1,62.4,58.3,54.1,54.5,50.5,47.8,88,76,61,30.04,29.66,30,3,30,0.00
2013-6-2,70.2,58.1,50.9,48.6,45.6,42.3,87,65,40,30.14,30.00,24,9,27,0.00
2013-6-3,75.0,63.2,49.8,56.1,50.1,46.4,89,64,41,30.04,29.79,37,15,37,0.00
2013-6-4,76.5,66.9,60.1,65.3,60.4,55.2,95,80,67,29.96,29.83,24,9,28,0.00
2013-6-5,72.9,63.9,55.2,64.0,54.1,48.4,97,72,44,30.03,29.92,32,11,34,0.14
2013-6-6,71.6,62.7,53.1,56.8,51.1,48.6,90,68,46,30.00,29.94,23,9,26,0.00
2013-6-7,76.3,63.6,50.2,54.5,50.7,47.8,94,65,40,30.03,29.87,20,4,23,0.00
2013-6-8,73.8,64.0,57.2,64.9,57.7,51.1,95,80,62,29.88,29.63,35,13,35,0.72
2013-6-9,69.6,64.0,59.4,61.3,58.3,55.8,95,82,69,29.83,29.71,29,11,30,0.23
2013-6-10,81.1,69.0,55.6,67.3,60.6,53.8,94,76,55,29.88,29.74,23,6,27,0.00
2013-6-11,90.5,77.6,67.6,70.3,65.6,60.8,92,69,43,29.78,29.62,32,10,39,0.00
2013-6-12,88.2,77.6,62.6,71.6,65.1,54.1,89,67,46,29.99,29.59,35,15,37,0.10
2013-6-13,79.5,67.0,57.7,61.7,56.3,51.1,88,71,39,30.10,29.95,16,6,17,0.02
2013-6-14,89.4,74.8,63.3,74.7,66.0,58.1,87,75,59,30.00,29.70,41,11,41,0.08
2013-6-15,82.6,73.9,66.4,69.1,66.4,60.8,94,78,54,29.93,29.77,31,10,32,0.11
2013-6-16,86.4,74.4,65.8,70.3,65.9,61.5,99,77,45,29.97,29.88,14,3,16,0.00
2013-6-17,88.0,76.6,66.0,66.4,60.4,52.5,93,61,33,29.98,29.90,19,5,21,0.00
2013-6-18,86.9,74.0,62.8,61.5,57.6,54.3,85,59,35,30.04,29.93,12,2,14,0.00
2013-6-19,86.2,75.5,64.0,66.6,63.0,59.7,89,67,43,29.97,29.85,33,11,33,0.00
2013-6-20,89.8,80.0,68.5,73.4,69.0,62.6,85,70,57,29.92,29.74,39,17,41,0.00
2013-6-21,96.3,84.8,76.3,73.6,71.3,67.3,81,65,40,29.81,29.71,33,16,39,0.00
2013-6-22,90.3,81.4,71.4,72.5,67.6,58.6,83,64,48,29.94,29.72,40,16,45,0.01
2013-6-23,81.3,73.2,64.9,72.3,67.6,62.2,95,83,68,29.90,29.70,38,9,38,0.54
2013-6-24,81.7,75.3,70.5,74.8,70.8,66.6,95,86,75,29.91,29.67,48,11,51,0.37
2013-6-25,86.2,79.6,72.0,77.0,71.1,61.3,90,75,62,29.74,29.60,31,11,36,0.01
2013-6-26,89.8,80.4,71.6,73.8,69.2,60.8,97,72,41,29.84,29.61,21,6,24,0.00
2013-6-27,82.0,73.5,66.9,73.2,68.2,64.0,93,84,67,29.97,29.84,28,3,36,0.96
2013-6-28,83.5,75.6,67.8,68.5,62.6,55.2,91,66,41,29.97,29.87,0,0,0,0.00
2013-6-29,79.9,70.8,61.9,61.5,58.0,54.1,83,66,44,29.93,29.86,9,0,9,0.00
2013-6-30,77.4,67.2,57.7,61.5,56.5,51.3,94,71,43,30.10,29.93,8,0,9,0.00
2013-7-1,81.3,68.7,54.5,62.4,54.9,50.5,90,65,37,30.18,30.09,19,5,19,0.00
2013-7-2,84.7,68.4,57.9,62.8,57.5,52.9,91,70,36,30.15,30.03,15,2,17,0.00
2013-7-3,85.5,70.3,57.7,63.0,57.8,51.4,93,68,36,30.06,29.92,20,3,25,0.00
2013-7-4,85.1,72.8,58.6,61.7,57.7,53.4,87,62,35,29.97,29.85,25,10,27,0.00
2013-7-5,86.7,75.7,64.8,67.6,62.3,58.1,81,64,44,29.89,29.78,30,12,33,0.00
2013-7-6,85.8,76.7,67.8,69.8,65.0,61.7,82,68,51,29.83,29.75,32,13,33,0.00
2013-7-7,92.5,81.7,72.7,73.4,67.2,61.9,79,63,44,29.85,29.76,28,10,32,0.00
2013-7-8,88.9,81.2,76.6,75.0,70.7,66.4,81,71,58,29.92,29.83,29,8,31,0.00
2013-7-9,97.5,84.4,74.1,77.2,72.6,68.5,89,69,46,29.90,29.79,25,5,26,0.01
2013-7-10,86.4,77.2,68.7,72.5,67.3,63.1,92,73,50,30.04,29.89,19,6,20,0.00
2013-7-11,84.7,74.8,63.9,64.8,62.2,59.0,90,67,47,30.08,29.92,24,10,27,0.00
2013-7-12,89.2,78.2,68.2,73.0,66.3,59.5,78,67,56,29.96,29.86,30,16,32,0.00
2013-7-13,87.1,78.8,72.0,75.6,68.4,62.1,79,71,62,29.93,29.86,28,15,31,0.00
2013-7-14,84.7,76.5,68.4,67.5,63.4,59.2,84,66,44,30.11,29.91,28,12,31,0.00
2013-7-15,87.1,75.8,60.6,71.1,65.9,57.9,93,73,51,30.16,30.07,22,5,22,0.00
2013-7-16,89.1,78.7,68.2,70.2,67.0,63.7,92,70,47,30.22,30.13,19,2,19,0.00
2013-7-17,90.1,80.5,69.6,72.3,69.8,67.5,93,72,51,30.26,30.12,16,4,18,0.00
2013-7-18,91.6,81.2,70.2,72.0,68.8,66.7,90,68,45,30.13,29.88,29,9,31,0.00
2013-7-19,93.9,83.1,72.1,72.1,68.1,59.7,78,61,38,29.91,29.82,17,6,20,0.00
2013-7-20,86.5,76.4,66.0,68.9,64.2,56.3,88,68,37,29.95,29.80,18,4,20,0.00
2013-7-21,89.8,77.5,67.6,72.1,69.0,65.5,93,77,53,29.89,29.71,25,4,26,0.00
2013-7-22,93.4,80.8,69.1,75.4,71.0,65.5,95,74,48,29.80,29.67,22,3,27,0.00
2013-7-23,79.9,71.6,64.6,69.4,65.2,62.4,94,81,64,30.01,29.78,15,0,18,0.42
2013-7-24,84.6,70.6,58.8,67.8,63.1,57.0,96,79,51,30.07,29.96,15,3,16,0.00
2013-7-25,77.7,71.4,66.6,69.1,65.8,62.6,95,83,71,30.03,29.96,0,0,0,0.00
2013-7-26,75.6,68.8,58.1,67.8,60.3,52.5,97,76,47,30.10,29.94,0,0,0,0.01
2013-7-27,71.1,62.1,53.1,54.7,50.9,46.0,94,69,45,30.14,30.00,20,5,21,0.00
2013-7-28,80.8,63.6,46.9,56.1,51.0,44.4,93,67,38,30.08,30.00,12,1,12,0.00
2013-7-29,64.8,62.3,59.7,64.0,59.9,54.0,98,92,73,30.04,29.98,6,0,6,0.30
2013-7-30,74.7,68.6,64.2,68.7,66.0,63.7,99,92,78,30.10,30.00,0,0,1,0.00
2013-7-31,84.6,72.4,60.3,70.5,65.9,59.2,98,82,59,30.13,30.02,10,1,11,0.00
2013-8-1,86.5,73.3,61.9,71.6,66.7,60.4,98,82,52,30.06,29.83,6,0,6,0.60
2013-8-2,82.8,73.6,63.3,70.9,66.9,60.8,96,80,63,29.98,29.75,11,0,12,0.61
2013-8-3,79.3,68.7,60.4,65.3,61.5,58.3,93,79,56,30.16,29.98,0,0,2,0.00
2013-8-4,75.7,68.2,60.4,68.7,62.3,56.8,93,82,67,30.16,30.00,0,0,2,0.00
2013-8-5,88.0,75.4,68.2,75.7,71.2,66.4,98,88,66,30.02,29.80,0,0,0,0.00
2013-8-6,88.0,77.0,66.9,78.3,71.9,65.8,98,85,66,29.88,29.75,4,0,4,0.00
2013-8-7,82.6,73.9,66.4,74.1,66.3,58.1,96,79,47,29.96,29.78,6,0,7,0.00
2013-8-8,77.4,68.9,62.8,68.0,64.2,61.0,94,86,65,30.00,29.92,9,1,12,0.00
2013-8-9,79.9,70.9,61.7,69.8,64.9,58.3,97,83,53,30.12,29.99,7,0,8,0.00
2013-8-10,81.5,69.1,56.1,66.9,61.2,54.1,96,77,56,30.19,30.06,19,5,20,0.00
2013-8-11,83.8,73.3,62.1,71.1,65.9,59.5,92,79,59,30.11,29.95,22,7,23,0.00
2013-8-12,83.1,73.3,63.9,73.2,67.1,60.8,97,82,55,30.04,29.96,7,0,8,0.04
2013-8-13,78.1,69.1,60.1,64.0,59.8,55.8,94,74,49,30.15,30.04,6,0,6,0.00
2013-8-14,74.5,65.8,56.3,63.7,58.9,53.8,93,79,61,30.18,30.05,18,6,21,0.00
2013-8-15,66.9,63.1,60.4,62.6,60.5,59.0,97,91,82,30.09,30.00,23,9,24,0.23
2013-8-16,73.6,65.9,60.8,62.2,60.0,58.3,96,82,63,30.16,30.08,8,0,9,0.00
2013-8-17,76.6,67.4,59.9,61.5,58.8,55.9,92,75,54,30.19,30.09,9,2,9,0.00
2013-8-18,78.8,66.8,50.5,64.9,58.9,49.1,97,78,54,30.15,30.03,21,5,23,0.00
2013-8-19,84.4,73.2,62.4,70.5,66.0,60.4,94,79,60,30.06,29.90,27,10,29,0.00
2013-8-20,87.1,77.2,69.6,72.1,69.0,66.2,92,77,59,29.94,29.87,27,11,29,0.00
2013-8-21,90.7,78.8,70.0,73.9,69.9,66.4,89,75,55,29.96,29.88,23,11,25,0.00
2013-8-22,84.7,75.4,68.5,71.4,68.7,65.7,95,81,61,30.05,29.92,23,6,27,0.00
2013-8-23,88.0,77.6,69.1,74.7,69.8,67.5,96,79,53,30.04,29.92,25,8,27,0.00
2013-8-24,90.7,80.7,72.7,75.9,71.4,68.5,88,74,57,30.02,29.94,31,13,31,0.00
2013-8-25,93.4,82.0,73.2,75.0,72.1,69.4,90,73,51,30.07,29.98,27,12,33,0.00
2013-8-26,93.2,82.5,74.7,74.3,71.5,69.8,86,70,51,30.03,29.90,25,11,29,0.00
2013-8-27,93.4,82.6,73.6,73.4,69.5,65.5,77,66,48,29.91,29.85,27,11,29,0.00
2013-8-28,93.4,80.0,68.2,71.2,67.2,63.7,87,67,40,29.96,29.88,21,6,21,0.00
2013-8-29,95.4,81.5,69.8,76.1,71.6,67.3,95,74,46,29.96,29.85,22,6,24,0.00
2013-8-30,96.6,82.5,70.9,78.6,71.4,66.7,92,72,42,29.86,29.77,14,5,17,0.00
2013-8-31,96.4,79.7,69.6,75.4,71.5,67.1,97,79,41,29.84,29.73,12,2,12,0.00
2013-9-1,81.9,73.8,63.0,71.4,64.0,56.8,96,74,46,29.98,29.71,22,2,25,0.05
2013-9-2,80.1,66.3,56.3,62.4,57.4,52.0,98,76,40,30.09,29.97,16,4,18,0.00
2013-9-3,84.9,68.2,51.3,63.0,58.2,49.3,95,73,46,30.10,30.00,16,4,17,0.00
2013-9-4,85.5,72.3,63.0,65.5,62.2,58.3,90,73,43,30.14,30.02,20,5,24,0.00
2013-9-5,86.5,74.4,66.7,67.1,63.5,58.6,89,71,40,30.16,30.05,20,6,22,0.00
2013-9-6,92.1,77.9,65.3,71.4,66.3,60.4,88,69,46,30.06,29.86,25,10,28,0.00
2013-9-7,92.5,78.0,71.2,72.1,68.8,66.0,93,75,45,29.88,29.81,28,7,31,0.01
2013-9-8,93.6,79.3,67.8,75.0,71.3,66.9,97,79,46,29.87,29.73,7,0,7,0.00
2013-9-9,96.3,83.9,72.9,70.9,63.4,57.9,83,52,30,29.80,29.73,0,0,0,0.00
2013-9-10,94.8,80.1,69.3,69.1,64.5,60.1,94,61,36,30.01,29.80,29,7,32,0.12
2013-9-11,80.2,72.9,69.6,73.0,69.9,66.7,97,91,74,30.10,29.99,19,2,20,0.85
2013-9-12,79.3,70.0,58.6,68.9,59.1,51.3,97,72,41,30.19,30.09,8,0,10,0.01
2013-9-13,76.3,63.1,50.2,55.2,51.6,48.6,96,69,40,30.22,30.06,14,3,19,0.00
2013-9-14,77.7,64.4,51.3,58.3,53.3,48.2,93,69,44,30.08,29.86,31,9,31,0.00
2013-9-15,68.5,64.9,61.5,65.7,59.6,54.7,96,83,71,30.22,29.83,23,9,26,0.40
2013-9-16,65.8,60.0,54.3,56.1,54.4,51.4,95,82,68,30.31,30.19,22,8,23,0.00
2013-9-17,78.3,65.2,57.2,69.3,62.5,55.9,100,92,71,30.19,29.86,24,10,27,0.27
2013-9-18,89.8,77.1,66.4,70.7,68.0,64.9,95,76,50,29.87,29.65,37,14,38,0.00
2013-9-19,83.1,71.2,58.3,67.8,62.7,52.2,95,75,56,29.99,29.68,27,10,30,0.15
2013-9-20,70.2,58.9,48.7,53.6,48.2,44.1,91,70,41,30.09,29.97,28,8,28,0.00
2013-9-21,77.2,60.4,43.3,55.0,49.4,41.2,95,70,44,30.05,29.86,24,6,24,0.00
2013-9-22,80.8,66.9,55.0,57.0,52.5,46.2,90,64,30,29.89,29.77,33,12,34,0.00
2013-9-23,76.8,64.8,53.1,55.4,52.2,49.3,89,66,43,29.82,29.68,39,16,41,0.00
2013-9-24,69.6,63.1,54.0,59.0,56.1,52.0,96,79,67,29.90,29.66,28,8,29,0.00
2013-9-25,79.2,64.7,47.7,61.3,56.6,46.8,100,78,51,29.91,29.73,28,8,30,0.00
2013-9-26,87.3,73.2,61.0,61.3,59.8,57.7,92,66,40,29.77,29.68,43,21,43,0.00
2013-9-27,87.6,76.0,67.6,62.2,60.3,57.6,80,60,40,29.78,29.70,38,19,47,0.00
2013-9-28,72.1,61.3,48.7,64.6,51.3,42.3,95,72,41,30.06,29.62,33,11,36,0.64
2013-9-29,75.7,60.0,46.4,48.6,45.1,41.9,88,62,32,30.08,29.88,27,8,29,0.00
2013-9-30,79.5,64.3,51.3,54.0,50.9,46.6,89,65,38,29.91,29.69,28,11,32,0.00
2013-10-1,80.8,66.2,53.2,55.8,53.4,49.3,91,66,41,29.93,29.76,16,5,18,0.00
2013-10-2,84.4,70.0,56.7,67.3,60.7,51.1,95,74,47,29.94,29.78,33,8,33,0.00
2013-10-3,79.5,69.3,60.4,68.7,63.4,58.8,97,82,64,29.86,29.67,32,10,36,2.40
2013-10-4,84.6,67.4,51.4,72.0,60.5,39.6,97,80,50,29.89,29.58,29,13,33,2.42
2013-10-5,51.6,46.6,41.9,39.9,35.3,33.3,84,65,51,29.95,29.85,32,11,34,0.00
2013-10-6,52.3,46.7,42.3,46.0,41.4,36.1,95,82,62,30.05,29.83,29,11,30,0.00
2013-10-7,73.8,56.7,40.6,43.9,40.5,36.7,88,59,29,30.12,30.00,22,6,24,0.00
2013-10-8,77.4,62.0,47.7,48.2,44.9,41.5,80,56,34,30.01,29.88,35,14,38,0.00
2013-10-9,78.6,63.8,52.0,53.4,50.1,46.6,83,63,39,29.98,29.90,32,15,33,0.00
2013-10-10,80.1,65.9,53.6,58.3,53.7,48.6,86,66,45,29.97,29.76,35,17,41,0.00
2013-10-11,78.3,65.6,52.7,60.4,51.0,39.7,86,63,27,29.89,29.60,40,17,45,0.00
2013-10-12,66.2,53.7,42.6,43.2,36.6,29.8,80,57,26,30.30,29.88,22,6,27,0.00
2013-10-13,69.3,53.6,36.0,39.9,35.6,32.2,90,55,29,30.43,30.29,21,7,25,0.00
2013-10-14,59.9,54.0,46.8,59.0,46.9,35.2,97,78,51,30.30,29.72,39,17,43,0.72
2013-10-15,54.1,47.5,43.3,50.2,40.8,36.9,93,77,67,30.11,29.83,36,16,36,0.43
2013-10-16,56.8,46.5,39.7,41.4,36.9,29.5,92,71,41,30.12,29.99,21,7,22,0.00
2013-10-17,59.9,46.4,36.5,43.7,37.8,33.3,89,73,47,30.09,29.92,30,10,31,0.00
2013-10-18,49.3,40.5,34.5,38.1,31.8,26.4,90,73,42,30.17,30.06,15,5,17,0.00
2013-10-19,62.2,46.1,31.8,37.6,33.9,28.9,92,66,36,30.06,29.84,28,6,30,0.00
2013-10-20,64.4,52.2,42.1,42.4,38.9,35.8,79,62,39,30.03,29.74,28,9,28,0.00
2013-10-21,54.3,42.4,30.4,38.5,34.5,28.4,94,75,51,30.14,29.96,21,5,22,0.00
2013-10-22,50.7,44.5,35.6,44.4,38.0,32.5,90,78,64,30.15,29.89,33,12,36,0.00
2013-10-23,51.3,39.4,28.8,41.4,35.0,27.3,96,85,63,30.25,30.08,23,5,25,0.01
2013-10-24,48.6,38.1,29.7,34.5,27.8,22.8,92,69,38,30.45,30.25,21,6,23,0.00
2013-10-25,57.9,42.8,28.8,35.1,29.3,23.4,83,61,40,30.45,30.10,31,10,32,0.00
2013-10-26,50.4,43.4,28.9,37.0,32.0,24.3,84,65,43,30.25,30.05,27,10,29,0.01
2013-10-27,69.3,48.0,29.5,38.8,32.5,24.6,85,59,31,30.18,29.86,29,8,32,0.00
2013-10-28,53.4,45.6,35.8,40.6,36.5,31.3,87,71,56,30.18,29.96,26,11,27,0.00
2013-10-29,53.6,48.1,42.8,53.1,46.2,40.3,98,93,75,30.20,29.95,22,9,24,0.09
2013-10-30,53.6,47.8,43.0,53.2,47.2,41.2,99,98,93,29.97,29.77,22,8,23,0.22
2013-10-31,57.4,45.0,37.6,46.6,39.4,36.0,100,82,51,29.78,29.54,26,6,29,0.01
2013-11-1,59.4,47.2,38.8,43.3,38.6,34.5,87,73,40,30.03,29.63,47,14,56,0.00
2013-11-2,57.9,44.5,35.1,38.5,34.2,31.5,89,69,37,30.23,30.02,28,7,30,0.00
2013-11-3,57.4,48.5,38.1,40.3,36.0,32.5,81,63,45,30.12,29.76,48,20,54,0.00
2013-11-4,55.4,48.7,37.8,44.8,39.7,33.1,88,72,53,30.15,29.79,27,8,29,0.00
2013-11-5,45.9,41.9,34.3,44.4,39.5,32.7,97,91,78,30.15,29.83,0,0,0,0.81
2013-11-6,43.5,36.0,32.4,35.8,32.5,30.0,95,87,70,30.32,30.08,12,1,13,0.02
2013-11-7,48.7,37.8,31.1,32.7,28.0,21.7,92,70,36,30.47,30.31,23,7,24,0.00
2013-11-8,62.4,48.5,35.4,39.9,34.0,26.4,74,59,36,30.32,29.76,41,14,45,0.00
2013-11-9,60.1,49.7,37.0,36.7,34.7,31.3,84,58,39,30.36,29.95,23,8,26,0.00
2013-11-10,52.9,42.5,29.1,38.1,32.0,26.1,91,68,43,30.43,30.18,21,7,21,0.00
2013-11-11,48.0,33.8,18.7,45.5,27.3,11.7,94,77,56,30.81,30.13,35,17,35,0.00
2013-11-12,34.2,21.1,9.9,13.8,10.4,5.4,88,66,31,30.96,30.64,22,6,22,0.00
2013-11-13,53.2,37.4,22.6,30.6,22.7,13.5,76,56,41,30.64,30.04,35,15,38,0.00
2013-11-14,53.8,42.3,33.6,35.8,29.1,23.5,84,60,45,30.04,29.92,25,5,26,0.00
2013-11-15,56.5,41.9,27.0,42.1,34.4,24.3,92,76,50,29.92,29.62,25,8,28,0.00
2013-11-16,64.6,52.9,43.5,53.4,40.6,26.8,95,67,34,29.62,29.33,38,12,46,0.00
2013-11-17,56.7,47.7,34.3,41.7,36.3,30.7,89,65,48,30.09,29.29,30,11,31,0.00
2013-11-18,57.6,41.4,26.8,32.9,27.0,22.5,90,61,27,30.29,30.09,23,6,23,0.00
2013-11-19,61.9,47.5,32.5,36.0,29.3,25.5,80,52,31,30.21,29.89,39,17,43,0.00
2013-11-20,58.6,47.6,37.6,39.4,34.8,29.3,88,63,47,29.94,29.74,30,15,32,0.00
2013-11-21,37.6,27.9,20.5,34.7,23.9,16.9,94,85,74,30.62,29.93,36,21,38,0.00
2013-11-22,26.6,19.7,13.3,16.9,11.7,8.2,86,71,56,30.79,30.61,30,10,34,0.00
2013-11-23,24.4,16.6,10.6,16.7,7.6,1.8,89,68,49,30.96,30.71,25,9,26,0.00
2013-11-24,30.7,20.7,10.2,16.0,10.8,4.8,82,66,47,30.83,30.30,24,11,27,0.00
2013-11-25,43.2,32.7,25.9,30.6,23.2,13.3,78,68,54,30.30,30.18,24,9,24,0.00
2013-11-26,31.8,25.3,14.0,25.2,15.6,7.5,87,68,42,30.49,30.25,41,15,42,0.00
2013-11-27,33.4,22.6,8.8,19.6,12.4,5.0,86,66,45,30.48,30.12,27,8,28,0.00
2013-11-28,33.3,25.8,16.0,22.5,17.8,10.9,85,72,54,30.53,30.14,31,10,34,0.00
2013-11-29,48.6,30.9,14.7,29.8,22.1,10.2,87,71,48,30.54,30.19,27,11,29,0.00
2013-11-30,57.9,39.2,27.0,33.4,27.9,22.5,84,66,37,30.19,30.09,12,4,18,0.00
2013-12-1,49.6,35.8,22.3,31.8,27.1,19.6,93,72,49,30.19,29.89,11,4,11,0.00
2013-12-2,63.7,44.7,31.5,36.7,32.8,27.5,92,66,35,29.89,29.53,15,5,17,0.00
2013-12-3,43.3,37.2,32.9,35.8,32.5,28.8,94,83,73,29.71,29.49,23,9,23,0.00
2013-12-4,33.8,21.8,15.4,32.5,18.4,9.1,96,87,74,30.16,29.67,30,18,34,0.00
2013-12-5,16.3,11.2,6.4,9.9,2.3,-2.2,78,67,54,30.53,30.13,35,14,36,0.00
2013-12-6,11.5,5.4,0.0,-0.9,-3.9,-6.7,77,65,51,30.80,30.52,26,11,28,0.00
2013-12-7,13.1,5.0,-4.2,3.7,-3.1,-8.5,83,70,52,30.85,30.49,14,4,16,0.00
2013-12-8,18.1,13.6,7.2,14.7,10.3,2.3,92,87,62,30.49,30.09,19,7,20,0.00
2013-12-9,15.3,4.9,-3.8,7.0,-1.0,-8.7,89,76,65,30.46,30.19,25,8,30,0.00
2013-12-10,28.8,22.2,15.3,25.5,14.8,6.8,88,73,64,30.37,30.19,24,8,28,0.00
2013-12-11,28.9,9.7,2.1,26.6,3.0,-3.6,92,74,57,30.74,30.31,39,12,42,0.00
2013-12-12,32.4,21.3,7.9,24.1,14.4,1.8,88,75,64,30.56,30.14,19,6,20,0.00
2013-12-13,30.2,22.6,13.5,25.9,19.4,10.4,93,87,82,30.14,29.94,24,6,25,0.00
2013-12-14,22.5,17.2,10.4,19.8,13.8,7.5,91,86,80,30.29,30.13,24,11,28,0.00
2013-12-15,32.9,23.2,14.4,27.3,19.9,12.0,100,87,77,30.24,30.01,11,3,13,0.00
2013-12-16,47.5,28.2,13.5,35.6,23.5,11.3,93,83,61,30.24,30.02,21,4,23,0.00
2013-12-17,41.2,32.1,26.2,29.8,22.8,17.1,92,71,39,30.36,30.14,30,7,31,0.00
2013-12-18,57.4,40.5,28.4,32.9,27.6,21.0,78,61,38,30.14,29.73,25,9,28,0.00
2013-12-19,34.5,29.8,17.8,28.6,25.0,15.8,92,82,73,29.92,29.74,30,14,31,0.00
2013-12-20,18.1,15.2,11.8,15.8,12.4,9.1,92,88,84,30.04,29.91,31,13,31,0.00
2013-12-21,24.4,20.7,16.7,20.3,17.0,13.6,92,85,80,29.99,29.85,26,8,26,0.00
2013-12-22,21.6,16.1,8.4,19.6,11.1,3.2,92,81,67,30.47,29.92,32,15,34,0.00
2013-12-23,11.5,6.0,0.0,3.6,-1.6,-6.9,79,71,54,30.70,30.46,31,10,32,0.00
2013-12-24,26.8,15.1,5.2,25.0,10.9,-0.2,94,83,76,30.63,30.22,36,12,39,0.00
2013-12-25,42.1,28.9,18.5,30.9,22.6,16.3,92,78,53,30.37,30.29,35,10,38,0.00
2013-12-26,49.6,34.9,23.4,26.2,22.7,18.5,84,63,38,30.30,30.15,16,6,19,0.00
2013-12-27,61.5,39.4,22.5,31.1,25.6,17.6,83,61,27,30.31,30.10,25,6,27,0.00
2013-12-28,57.4,40.2,16.3,31.8,27.2,8.4,78,62,33,30.15,29.78,50,17,54,0.00
2013-12-29,16.2,8.8,2.7,8.6,-5.7,-13.2,77,53,29,30.44,30.14,46,18,49,0.00
2013-12-30,38.7,19.2,2.7,27.1,7.2,-5.6,82,60,45,30.38,30.16,28,12,30,0.00
2013-12-31,39.2,18.0,7.2,24.4,11.4,3.2,86,76,55,30.36,30.06,30,8,32,0.00
2014-1-1,12.6,8.4,1.9,7.5,4.1,-3.1,87,82,77,30.49,30.17,29,14,29,0.00
2014-1-2,9.3,3.2,-2.4,2.8,-1.5,-6.9,92,80,72,30.58,30.46,14,6,16,0.00